Location: Balmoral
(33.0667°S, 151.5833°E)
Time: 16:50:21
(UTC+00:00)

DELTA 2 R/B (1) - Pass Details

Date: 18 September 2020
Orbit: 790 x 803 km, 39.6° (Epoch: 24 October)

Event Time Altitude Azimuth Distance (km) Brightness Sun altitude
Exits shadow 18:38:58 20° 253° (WSW) 1,798 4.9 -15.1°
Maximum altitude 18:42:37 46° 188° (S) 1,075 4.2 -14.4°
Drops below altitude 10° 18:48:04 10° 115° (ESE) 2,393 7.3 -13.2°
Sets 18:50:40 0° 109° (ESE) 3,324 8.6 -12.7°
